FW4272 Weather Reports


Display with metric or nautical units.
time (UTC)temp
F
wind
direction
speed
MPH
gust
MPH
rain 1hr
in
rain 24hr
in
rain mn
in
humidity
%
barometer
mb
20260507211553 54 96 12.0 21.0 0.01 0.63 0.63 92 1001.3
20260507210053 54 134 13.0 23.0 0.01 0.63 0.63 92 1001.3
20260507204556 54 129 11.0 19.0 0.01 0.63 0.63 92 1001.4
20260507203051 54 131 11.0 19.0 0.00 0.62 0.62 93 1001.0
20260507201557 53 104 13.0 19.0 0.04 0.62 0.62 93 1001.1
20260507200049 53 97 11.0 22.0 0.09 0.62 0.62 93 1000.5
20260507194547 53 96 14.0 23.0 0.10 0.62 0.62 92 1000.6
20260507193047 54 81 12.0 21.0 0.12 0.62 0.62 92 1001.4
20260507191536 54 101 11.0 17.0 0.11 0.57 0.57 92 1002.2
20260507190032 55 110 10.0 21.0 0.11 0.54 0.54 92 1002.8
20260507184530 55 99 10.0 17.0 0.16 0.52 0.52 92 1002.9
20260507183030 54 117 11.0 18.0 0.21 0.50 0.50 92 1002.8
20260507181528 54 137 14.0 25.0 0.34 0.47 0.47 92 1003.3
20260507180027 54 129 13.0 21.0 0.40 0.43 0.43 92 1003.3
20260507174535 55 144 14.0 20.0 0.36 0.36 0.36 91 1003.7
20260507173027 55 140 12.0 24.0 0.28 0.28 0.28 90 1004.2
20260507171520 55 146 17.0 28.0 0.13 0.13 0.13 89 1003.6
20260507170027 57 164 16.0 30.0 0.02 0.02 0.02 86 1003.3
20260507164517 58 145 16.0 38.0 0.00 0.00 0.00 83 1003.1
20260507163016 59 148 24.0 40.0 0.00 0.00 0.00 81 1002.9
20260507161515 59 126 24.0 40.0 0.00 0.00 0.00 80 1003.5
20260507160015 60 158 25.0 40.0 0.00 0.00 0.00 79 1003.5
20260507154512 60 135 24.0 36.0 0.00 0.00 0.00 79 1003.8
20260507153010 60 148 25.0 38.0 0.00 0.00 0.00 79 1003.9
20260507151507 61 149 21.0 38.0 0.00 0.00 0.00 77 1004.3
20260507150004 61 123 22.0 38.0 0.00 0.00 0.00 77 1004.9
20260507144556 61 157 22.0 36.0 0.00 0.00 0.00 76 1005.2
20260507143155 61 162 22.0 37.0 0.00 0.00 0.00 77 1005.4
20260507141553 60 144 28.0 41.0 0.00 0.00 0.00 78 1005.3
20260507140051 60 166 24.0 42.0 0.00 0.00 0.00 80 1005.9
20260507134552 60 146 22.0 34.0 0.00 0.00 0.00 81 1005.8
20260507133048 60 165 22.0 42.0 0.00 0.00 0.00 80 1005.6
20260507131556 60 135 26.0 44.0 0.00 0.00 0.00 80 1005.9
20260507130050 59 129 21.0 31.0 0.00 0.00 0.00 80 1006.2
20260507124547 59 153 24.0 39.0 0.00 0.00 0.00 80 1006.5
20260507123037 59 125 23.0 36.0 0.00 0.00 0.00 83 1006.5
20260507121533 58 129 20.0 39.0 0.00 0.00 0.00 86 1007.2
20260507120038 58 152 20.0 35.0 0.00 0.00 0.00 87 1006.6
20260507114525 57 108 19.0 32.0 0.00 0.00 0.00 89 1006.6
20260507113023 56 137 22.0 40.0 0.00 0.00 0.00 90 1007.3
20260507111517 56 144 18.0 37.0 0.00 0.00 0.00 89 1007.7
20260507110017 57 165 22.0 31.0 0.00 0.00 0.00 88 1008.4
20260507104516 57 177 17.0 29.0 0.00 0.00 0.00 87 1008.5
20260507103013 57 131 15.0 27.0 0.00 0.00 0.00 88 1008.0
20260507101508 55 126 14.0 24.0 0.00 0.00 0.00 89 1008.2
20260507100003 55 150 14.0 22.0 0.00 0.00 0.00 90 1008.5
20260507094600 54 139 12.0 22.0 0.00 0.00 0.00 90 1009.4
20260507093059 54 123 16.0 23.0 0.00 0.00 0.00 90 1009.6
20260507091557 54 148 10.0 23.0 0.00 0.00 0.00 90 1009.6
20260507090055 54 116 11.0 18.0 0.00 0.00 0.00 90 1009.9
20260507084546 54 133 9.0 20.0 0.00 0.00 0.00 90 1010.3
20260507083041 53 90 11.0 18.0 0.00 0.00 0.00 90 1010.0
20260507081548 53 106 13.0 21.0 0.00 0.00 0.00 90 1010.0
20260507080038 52 160 15.0 23.0 0.00 0.00 0.00 89 1010.0
20260507074551 53 145 15.0 27.0 0.00 0.00 0.00 89 1010.0
20260507073029 53 115 14.0 23.0 0.00 0.00 0.00 88 1010.6
20260507071525 53 146 11.0 21.0 0.00 0.00 0.00 88 1011.2
20260507070023 53 167 13.0 21.0 0.00 0.00 0.00 87 1011.7
20260507064521 53 140 16.0 25.0 0.00 0.00 0.00 87 1011.6
20260507063025 53 131 13.0 21.0 0.00 0.00 0.00 86 1011.3
20260507061519 53 144 15.0 23.0 0.00 0.00 0.00 86 1011.8
20260507060016 53 162 14.0 26.0 0.00 0.00 0.00 85 1011.6
20260507054510 53 93 14.0 23.0 0.00 0.00 0.00 83 1011.8
20260507053003 54 126 14.0 23.0 0.00 0.00 0.00 82 1012.2
20260507051558 54 108 13.0 22.0 0.00 0.00 0.00 81 1012.6
20260507050056 54 104 13.0 20.0 0.00 0.00 0.00 82 1013.3
20260507044552 54 123 15.0 22.0 0.00 0.00 0.00 80 1013.6
20260507043045 55 102 14.0 25.0 0.00 0.00 0.00 79 1013.9
20260507041540 55 129 15.0 25.0 0.00 0.00 0.00 78 1014.2
20260507040033 55 110 13.0 22.0 0.00 0.00 0.00 78 1014.5
20260507034525 56 146 12.0 20.0 0.00 0.00 0.00 77 1015.2
20260507033023 56 157 13.0 17.0 0.00 0.00 0.00 78 1015.2
20260507031516 55 144 12.0 18.0 0.00 0.00 0.00 78 1015.7
20260507030011 56 131 11.0 15.0 0.00 0.00 0.00 78 1015.9
20260507024509 56 134 11.0 18.0 0.00 0.00 0.00 77 1016.1
20260507023008 56 139 10.0 16.0 0.00 0.00 0.00 77 1016.4
20260507021506 56 121 9.0 18.0 0.00 0.00 0.00 77 1016.3
20260507020006 56 117 8.0 18.0 0.00 0.00 0.00 78 1016.5
20260507014504 56 125 12.0 18.0 0.00 0.00 0.00 77 1016.4
20260507013002 56 131 9.0 16.0 0.00 0.00 0.00 77 1016.6
20260507011502 56 139 8.0 15.0 0.00 0.00 0.00 76 1016.7
20260507010113 57 138 9.0 17.0 0.00 0.00 0.00 75 1016.8
20260507004559 57 161 9.0 15.0 0.00 0.00 0.00 75 1016.9
20260507003058 57 136 10.0 15.0 0.00 0.00 0.00 74 1016.9
20260507001603 58 139 9.0 15.0 0.00 0.00 0.00 73 1016.8
20260507000056 59 176 9.0 18.0 0.00 0.00 0.00 72 1016.9
20260506234556 59 147 10.0 16.0 0.00 0.00 0.00 71 1016.8
20260506233109 60 191 10.0 18.0 0.00 0.00 0.00 70 1016.6
20260506231552 61 164 9.0 19.0 0.00 0.00 0.00 68 1016.2
20260506230052 62 154 11.0 20.0 0.00 0.00 0.00 66 1015.9
20260506224551 64 181 12.0 28.0 0.00 0.00 0.00 62 1015.5
20260506223050 64 167 19.0 30.0 0.00 0.00 0.00 59 1015.4
20260506221550 65 182 19.0 28.0 0.00 0.00 0.00 58 1015.4
20260506220048 65 166 23.0 36.0 0.00 0.00 0.00 57 1015.5
20260506214551 66 183 18.0 33.0 0.00 0.00 0.00 56 1015.4
20260506213107 66 178 19.0 31.0 0.00 0.00 0.00 55 1015.4